Location: Artiguedieu
(43.5000°N, 0.5454°E)
Time: 03:48:58
(UTC+00:00)

HuskySat-1 - Pass Details

Date: 28 September 2021
Orbit: 446 x 458 km, 51.6° (Epoch: 19 October)

Event Time Altitude Azimuth Distance (km) Brightness Sun altitude
Rises 20:33:57 0° 262° (W) 2,459 ? -30.5°
Reaches altitude 10° 20:36:12 10° 271° (W) 1,591 ? -30.9°
Enters shadow 20:36:52 14° 276° (W) 1,348 ? -31.0°
